Weather in Novyye Sosny

Russia / Samara Oblast     54°13′09″N   52°03′01″E
temp.,
°C
wind,
m/s
gust,
m/s
humid.,
%
clouds,
%
prec.,
mm/h
press.,
hPa
HPBL,
m
25 february, thu
thu2501:00−29nnw22993 0.0 103419
04:00−29nw12991 0.0 103419
07:00−30w111000 0.0 103419
10:00−25ssw22930 0.0 103383
13:00−21s4690100 0.0 1032256
16:00−20s61089100 0.0 1029346
19:00−19s61296100 0.1 1026428
22:00−20sse71297100 0.8 1024479
26 february, fri
fri2601:00−19sse61195100 0.4 1022487
04:00−20sse61294100 0.6 1021418
07:00−20se61295100 0.1 1019356
10:00−18se71194100 0.1 1019404
13:00−15se71092100 0.0 1018514
16:00−14se71191100 0.1 1018579
19:00−16sse71393100 0.1 1016434
22:00−15sse81593100 0.1 1012432
27 february, sat
sat2701:00−13sse91794100 1.1 1006444
04:00−11sse91694100 5.7 1003527
07:00−9sse71194100 0.9 999325
10:00−6sse4796100 1.8 999236
13:00−1ssw369899 0.5 999305
16:000sw479999 0.8 999469
19:00−2sw379891 0.2 999218
22:00−1ssw479895 0.8 999292
28 february, sun
sun2801:00−3ssw379898 0.6 999193
04:00−4ssw239898 0.9 100086
07:00−4s2298100 0.5 100136
10:00−2ssw129699 1.1 1002148
13:00−1wnw229995 0.4 1004215
16:00−4nnw479693 0.7 1005254
19:00−10n599490 0.3 1007265
22:00−13nne499488 0.3 1010237
1 march, mon
mon101:00−15n389678 0.0 1012188
04:00−17n379680 0.1 1014165
07:00−20n369784 0.0 1016130
10:00−18n469454 0.0 1018243
13:00−16n579348 0.0 1019316
16:00−15nnw479471 0.0 1020346
19:00−19nnw359999 0.0 102192
22:00−21nw2210088 0.0 102220